RH
94 90 93 96 95 95 95 93 92 92 93 92 89 91 91 89 90 90 95 99 96 94 91 90 88 84 81 76 68 61 53 39 27 23 24 21 14 11 6 3 2 0 2 5 18 40 53 65 71 66 64 63
93 92 95 95 93 96 94 92 91 92 95 95 94 94 94 94 91 88 90 93 92 89 88 86 84 80 80 76 68 63 56 41 26 19 20 18 12 9 5 1 2 1 1 2 6 19 28 38 44 42 45 49
89 90 92 94 95 95 91 88 87 88 92 96 98 97 96 96 93 92 91 91 90 89 89 87 85 81 79 77 70 62 56 44 24 16 16 13 9 5 3 2 1 2 1 2 2 6 13 17 22 26 35 43
88 89 92 95 94 90 86 85 85 87 92 97 99 99 98 96 93 93 93 92 91 90 90 89 88 85 80 78 75 63 53 46 26 13 13 8 6 4 2 2 1 1 1 1 1 4 11 14 18 27 39 43
91 93 96 95 90 86 86 84 85 88 93 98 100 99 97 96 94 94 95 94 94 92 92 92 91 91 86 81 80 69 50 42 27 10 8 5 3 3 1 2 1 1 1 1 1 4 11 14 17 24 34 38
93 97 98 93 89 88 90 88 88 89 90 93 94 95 95 96 96 96 97 95 95 95 94 95 94 93 92 87 83 76 54 37 25 9 3 3 2 2 2 1 1 1 1 1 1 2 6 9 13 14 19 23
95 99 98 91 91 91 92 91 91 90 88 88 88 91 92 95 97 96 96 96 96 96 96 97 96 95 94 92 85 80 66 39 21 10 2 2 2 1 2 2 1 2 1 1 1 1 2 3 6 6 8 9
98 100 96 92 94 92 91 92 93 91 89 88 88 89 89 90 93 93 94 95 97 96 97 96 96 95 92 93 87 83 80 52 22 10 4 2 3 2 2 2 2 2 1 1 1 1 1 1 2 2 2 2
99 99 95 94 95 92 92 93 93 92 91 89 87 87 86 87 88 91 92 93 94 93 94 94 92 92 90 91 88 84 84 60 24 9 5 2 2 2 2 2 2 2 1 2 2 2 2 1 1 1 2 2
99 99 96 97 96 92 93 94 91 91 91 88 87 87 86 86 87 87 89 89 90 90 89 90 90 91 90 89 87 82 74 51 22 8 5 3 3 3 2 3 2 2 2 2 2 2 2 2 2 2 2 2
100 99 97 99 98 94 95 93 91 92 91 89 88 86 86 86 86 86 87 87 87 87 86 86 88 90 91 91 87 75 56 35 18 10 5 3 3 3 3 3 3 3 3 2 3 3 3 2 2 2 2 2
100 100 99 100 99 96 97 96 93 94 92 90 88 86 86 86 87 87 87 86 85 85 84 83 82 83 87 90 84 66 40 21 13 11 10 6 4 4 3 3 3 4 4 4 3 2 3 3 3 3 3 3
100 100 100 99 98 98 100 99 95 92 92 93 93 91 89 87 88 88 86 86 85 84 84 83 79 75 81 85 76 57 33 16 10 9 9 7 5 6 4 5 6 7 9 9 8 5 3 3 3 3 3 3
100 100 100 100 99 100 100 100 97 92 94 97 98 96 92 90 89 89 88 87 86 85 84 85 81 72 72 78 67 46 26 15 13 12 11 11 12 12 12 13 14 16 17 15 12 9 5 4 4 3 3 3
101 100 100 100 100 100 100 100 99 97 97 100 100 98 94 91 91 92 91 90 90 88 86 86 88 75 60 56 47 31 20 16 16 16 17 17 18 20 20 19 18 20 23 24 23 16 10 7 5 4 3 3
100 99 99 100 100 100 100 100 100 100 100 100 100 97 94 91 91 92 92 92 90 89 88 85 88 84 67 50 36 27 22 20 18 17 17 17 18 19 20 20 19 19 21 25 27 22 16 11 7 5 4 3
100 100 100 100 100 100 100 100 100 100 100 100 100 97 95 93 90 91 91 91 89 89 89 85 84 87 83 68 49 35 26 22 20 18 16 15 16 17 17 17 16 16 15 16 17 17 17 15 12 10 8 7
100 100 100 100 100 101 100 100 100 100 100 100 100 99 96 94 92 89 90 90 90 90 89 88 86 84 85 78 63 50 40 36 36 34 31 28 26 25 23 21 19 18 16 15 15 15 16 16 18 18 17 14
100 100 100 100 100 101 100 100 100 100 100 100 100 100 98 96 94 90 88 88 89 90 89 88 86 83 82 79 73 69 65 63 63 61 57 52 46 41 37 33 33 32 29 28 27 26 26 26 27 27 22 17
101 100 100 100 100 100 100 100 100 100 100 100 100 101 100 98 96 90 86 85 86 88 88 87 86 85 83 81 81 80 78 76 73 70 67 63 56 50 47 45 44 46 46 46 44 40 38 36 34 28 22 17
100 100 100 100 100 100 100 100 100 100 100 100 100 100 100 99 97 92 88 90 92 91 90 89 87 87 86 85 85 84 81 79 75 72 69 66 61 56 52 50 47 47 46 45 41 37 32 30 28 24 20 16
100 100 100 100 100 100 100 100 100 100 100 100 100 100 100 100 99 97 96 98 98 96 95 92 89 88 88 88 88 87 85 83 79 75 72 68 65 61 56 52 48 44 41 38 33 29 25 22 20 18 16 13
100 100 100 100 100 100 100 100 100 100 100 100 100 100 100 100 100 100 100 100 100 98 97 94 92 91 90 90 89 87 84 82 81 78 73 65 59 55 51 47 44 42 39 35 33 29 25 21 18 17 16 15
100 100 101 100 100 100 100 100 100 100 100 100 100 100 100 100 100 99 98 99 100 98 97 95 94 93 91 90 87 84 81 79 76 69 60 51 46 42 40 38 36 36 35 32 32 30 27 24 23 22 21 21
100 100 100 100 100 100 100 100 100 100 100 100 100 100 100 100 100 100 98 99 99 99 98 96 93 91 89 88 85 80 74 67 58 50 43 38 36 34 33 33 32 32 32 32 31 31 30 29 28 28 26 26
100 100 100 100 100 100 100 100 100 100 100 100 100 100 100 100 100 100 100 100 100 99 97 93 91 89 88 87 82 71 58 47 41 37 35 33 32 32 32 32 33 33 33 33 33 33 33 32 32 33 32 31
100 100 100 100 100 100 100 100 100 100 100 100 100 100 100 100 100 100 100 100 98 96 93 90 89 89 87 81 68 53 42 37 35 34 34 33 33 34 34 34 34 34 34 34 34 34 34 33 33 34 34 35
100 100 100 100 100 100 100 100 100 100 100 100 100 100 100 100 100 99 99 98 95 91 88 86 85 82 75 63 48 39 36 36 35 35 35 35 36 35 35 36 35 35 35 35 35 36 36 36 36 35 35 37
100 100 100 100 100 101 100 100 100 100 100 100 100 99 99 99 98 97 95 92 88 85 82 77 71 64 53 43 38 37 37 37 37 37 37 37 37 37 37 38 38 38 38 38 39 40 40 40 40 39 38 38
100 100 100 100 100 100 100 100 100 100 100 99 99 98 97 95 92 90 88 85 83 79 73 65 56 48 42 39 39 39 39 39 38 38 38 38 38 39 40 41 42 43 43 44 44 44 45 45 46 44 43 43
100 100 100 100 100 100 100 100 100 99 98 97 96 94 92 90 88 87 85 81 77 69 60 52 46 43 42 41 40 40 40 40 40 41 42 42 43 43 45 45 46 47 47 47 46 46 46 45 46 44 43 43
Wind_Speed
17 14 13 13 13 14 14 13 11 11 12 12 12 13 13 13 14 11 9 8 6 5 5 5 5 5 4 4 6 3 3 2 2 2 0 2 5 6 6 7 8 9 9 10 12 13 13 11 10 8 7 6
14 13 13 13 13 14 14 13 12 12 13 13 14 15 13 12 10 9 7 7 6 5 5 6 7 8 5 4 4 3 3 2 2 2 2 4 6 6 6 7 8 9 9 9 10 11 12 12 10 10 9 8
14 14 14 15 15 14 13 12 13 13 14 14 15 14 12 11 9 8 7 6 6 6 6 7 8 9 7 5 4 3 3 3 2 3 3 5 6 6 7 7 8 9 9 9 9 10 11 11 10 10 10 8
17 17 17 16 15 14 12 12 13 13 14 14 14 13 11 10 8 8 7 6 6 6 7 8 9 9 8 7 5 4 3 3 3 3 4 6 7 6 7 7 7 8 8 9 9 10 11 11 10 10 9 8
21 20 19 18 15 14 12 12 13 13 13 14 13 12 10 9 9 8 7 6 6 6 7 8 8 9 8 8 6 5 4 3 2 2 4 6 6 6 6 6 6 6 7 8 8 9 10 10 10 10 9 8
23 22 21 18 17 14 13 12 13 12 11 12 12 11 11 10 10 8 8 7 7 7 7 7 7 8 9 9 7 6 5 4 2 2 6 7 6 6 6 5 5 5 5 6 6 7 9 10 10 10 10 10
24 23 21 19 18 15 14 13 13 12 11 11 12 11 10 10 9 8 8 7 7 7 7 7 7 8 9 10 9 7 6 5 2 3 7 7 6 6 5 5 4 4 4 4 4 5 7 9 10 10 10 11
26 24 22 20 18 16 15 15 14 13 12 12 11 10 9 8 8 8 8 8 8 8 8 8 8 9 10 11 10 10 8 6 4 5 7 6 6 5 4 4 4 3 3 3 3 4 5 7 9 9 10 11
26 25 23 21 19 17 17 16 15 14 14 13 11 10 9 8 8 9 9 9 8 8 9 10 10 11 11 10 9 9 9 7 6 6 6 6 5 4 4 3 3 2 2 2 3 4 5 6 8 8 9 9
26 26 24 22 21 19 18 16 15 16 15 13 11 10 9 9 9 8 8 8 8 9 11 12 12 12 11 9 8 7 7 7 7 6 6 6 5 4 3 2 2 2 2 2 3 4 5 6 8 8 9 9
29 28 26 24 23 21 19 16 15 15 15 14 12 10 9 9 7 7 6 6 6 8 9 10 12 11 11 10 8 7 5 5 6 6 6 6 4 3 2 2 2 2 3 3 4 5 6 7 8 9 9 9
31 30 27 25 24 22 20 18 15 15 16 14 13 11 9 7 7 7 6 5 5 5 7 7 9 10 10 10 9 7 5 4 5 5 5 5 5 4 3 3 3 4 5 5 6 6 7 8 8 9 9 9
31 30 27 25 24 23 22 20 16 15 15 14 13 12 9 7 7 7 6 5 4 4 6 7 7 9 9 10 9 8 6 4 4 4 4 5 5 5 4 5 5 6 7 7 7 8 8 9 9 10 10 10
32 30 28 26 25 24 23 21 18 15 15 15 14 12 9 8 7 7 5 4 3 3 5 6 6 8 9 10 10 9 7 6 5 4 5 6 6 6 6 6 7 8 9 9 9 10 10 10 11 11 11 11
32 30 28 28 26 24 23 22 19 17 17 17 15 13 11 8 7 7 5 4 3 3 4 6 6 6 7 9 9 8 7 6 6 6 6 7 7 7 7 8 9 10 10 10 11 11 12 12 12 13 13 13
31 30 30 30 28 26 24 23 21 19 19 19 17 15 13 10 8 7 6 5 5 5 5 6 7 6 5 7 7 7 6 6 6 7 8 8 9 9 9 10 10 10 11 11 11 12 13 13 13 13 14 14
32 32 32 32 31 29 27 26 24 22 22 20 18 17 15 13 10 9 9 8 8 8 7 7 7 8 6 6 7 7 7 7 7 8 8 8 9 10 10 10 10 11 11 12 12 12 13 13 13 13 13 14
34 33 33 33 31 29 28 28 25 24 23 20 19 18 16 15 13 12 11 10 10 9 8 6 6 9 9 8 8 8 9 8 8 8 8 9 9 10 10 10 11 11 12 13 13 13 14 14 14 14 14 14
33 32 33 33 30 28 28 27 26 24 23 21 20 19 17 16 15 13 12 13 12 12 10 8 9 11 11 10 9 8 9 9 9 9 9 10 10 11 11 12 12 13 14 14 15 15 15 16 16 16 16 15
32 32 32 31 30 29 28 27 26 25 23 22 21 20 19 17 16 14 14 16 16 14 13 13 12 10 10 12 11 11 10 10 10 10 11 11 11 12 12 13 14 14 15 15 16 16 16 16 16 17 18 17
32 32 31 30 29 29 28 27 27 25 24 22 22 21 20 19 17 15 16 16 16 14 13 13 10 8 10 12 13 13 13 13 13 13 14 14 14 14 15 15 15 15 16 16 16 16 16 16 16 17 17 18
33 32 32 30 29 29 29 29 28 27 24 22 22 21 20 19 17 16 15 14 13 12 11 10 9 10 11 12 13 15 16 17 17 17 17 17 17 17 17 17 17 16 16 16 16 15 15 15 16 16 17 17
34 33 32 30 29 30 30 30 29 27 25 23 22 22 20 19 17 15 15 14 13 12 11 11 11 11 11 12 15 17 19 20 19 18 18 17 17 18 18 18 17 17 16 16 15 14 14 14 15 15 15 16
33 33 31 29 30 30 30 30 28 27 26 25 24 23 22 21 19 17 16 16 15 14 14 13 12 11 11 14 17 19 20 19 17 17 16 16 16 16 16 16 16 16 15 15 14 13 12 13 13 13 14 15
30 30 29 30 31 30 30 28 27 26 26 26 25 25 24 22 20 18 18 18 17 16 15 14 13 13 14 17 20 20 18 16 15 14 14 14 14 14 14 14 14 14 14 13 13 11 10 11 12 12 13 13
26 26 27 28 29 30 28 26 25 25 25 24 24 23 22 21 20 19 19 18 17 16 15 13 13 13 15 19 19 17 15 13 13 12 12 13 13 13 13 13 13 12 13 12 12 11 10 10 9 8 9 10
23 24 25 25 26 26 26 25 25 25 25 24 23 22 21 20 20 19 18 18 16 15 14 12 12 13 16 18 16 14 13 12 11 11 11 11 11 12 12 12 12 11 11 12 12 12 11 11 10 8 8 9
22 23 24 24 23 23 24 24 25 25 25 24 23 23 21 20 19 18 18 17 15 14 13 12 12 13 15 15 14 12 11 10 10 10 9 10 10 11 11 11 12 11 11 12 12 11 10 11 11 8 7 8
20 21 21 22 22 22 23 23 23 23 23 22 22 21 20 19 18 17 16 15 14 13 11 11 11 12 13 12 12 11 10 10 9 8 8 9 9 9 10 10 11 11 12 12 11 11 10 8 6 7 10 12
19 20 20 21 22 23 24 24 23 22 22 21 20 19 19 18 17 15 14 13 12 11 10 10 10 10 11 10 10 9 9 8 8 7 7 7 8 8 9 10 10 11 12 12 12 12 10 8 8 11 14 15
22 23 23 23 24 24 24 25 24 22 22 21 19 18 17 16 15 14 13 12 11 10 10 10 9 9 9 8 8 8 7 7 6 6 6 7 7 8 9 10 10 10 10 11 11 12 12 11 12 14 14 15
Wind_Direction
189 190 192 188 184 185 186 185 188 186 189 188 182 189 187 186 194 197 200 204 216 226 241 252 261 259 254 274 284 279 268 275 262 256 84 172 164 162 162 161 159 157 162 172 182 187 194 197 197 208 215 227
188 192 190 181 177 178 180 182 189 189 189 188 185 190 192 192 197 198 204 213 230 248 260 269 273 274 277 294 306 278 243 245 246 220 189 176 165 164 164 165 163 163 170 177 186 193 203 206 204 214 219 224
181 184 180 173 173 174 176 179 182 184 183 184 185 191 194 194 196 200 211 229 247 262 274 283 282 284 290 296 314 293 246 242 244 220 196 177 169 169 167 170 171 173 181 188 194 199 210 214 212 220 221 224
176 176 174 173 175 174 173 172 173 174 175 178 182 188 190 193 201 206 213 228 246 262 274 283 285 289 290 287 305 313 271 249 244 220 190 174 171 172 173 176 178 180 189 199 204 204 214 220 220 223 224 227
176 179 175 173 173 170 169 165 165 163 168 175 181 188 191 198 204 206 210 221 235 251 261 270 281 289 291 286 291 308 300 267 247 208 174 167 171 173 176 180 183 188 199 210 215 212 218 227 228 229 231 234
178 182 176 171 170 168 168 163 160 158 163 175 182 188 192 199 201 203 208 216 229 238 247 255 269 281 289 290 286 293 306 292 260 189 173 169 175 178 181 184 186 197 208 218 226 226 226 234 238 241 244 245
180 182 175 171 172 169 170 165 161 159 165 176 180 184 191 199 201 207 212 219 227 234 241 245 258 273 285 289 287 287 297 296 269 200 187 181 183 185 190 193 195 203 211 224 232 239 238 243 247 251 257 259
182 179 174 175 174 171 173 170 167 165 167 173 175 180 192 203 207 216 222 226 229 233 242 248 260 272 282 290 291 288 289 283 254 214 201 193 192 192 198 203 208 215 226 239 239 247 248 251 256 259 269 273
184 177 175 177 173 173 178 175 173 170 167 168 174 182 191 202 210 217 224 232 241 253 263 269 273 275 281 289 291 286 284 271 240 211 204 200 198 199 208 213 212 223 241 260 263 265 265 268 271 275 281 282
184 180 179 178 174 176 180 180 178 172 170 170 173 184 192 199 206 217 227 238 254 268 275 278 276 276 279 285 287 282 274 255 228 205 203 203 204 207 215 225 233 247 258 273 279 281 283 286 287 288 290 290
183 181 182 178 175 178 181 184 187 179 175 173 176 191 202 205 211 222 225 237 261 272 279 281 277 275 276 279 282 278 262 239 215 197 203 207 205 214 233 258 277 286 289 290 291 292 291 290 291 292 294 296
185 181 181 179 177 180 184 186 191 186 178 179 187 198 206 214 219 216 219 238 267 289 300 299 290 282 276 276 276 275 262 231 206 188 199 208 204 217 237 259 275 283 287 289 292 293 293 291 291 292 293 293
185 182 181 182 182 183 186 187 191 190 184 185 191 194 201 213 213 211 225 240 255 303 317 312 304 294 281 278 279 279 276 250 231 202 200 210 211 220 235 253 267 275 282 286 288 287 287 286 286 287 287 287
185 184 183 184 186 187 187 187 189 190 189 190 190 191 196 210 211 209 223 236 240 284 312 307 300 292 279 277 277 278 280 270 259 240 226 227 224 229 239 252 262 271 278 283 286 285 283 283 284 284 284 285
186 184 186 187 188 190 190 188 187 188 191 190 190 191 194 213 214 204 210 220 232 248 289 300 298 288 275 273 273 275 279 277 277 272 268 265 260 257 256 260 262 267 274 280 285 284 282 283 284 285 284 285
188 186 188 190 189 190 191 190 189 189 191 190 191 192 195 211 218 216 220 226 251 257 268 292 302 299 277 269 270 273 277 278 281 283 288 289 288 286 280 277 275 277 280 282 286 286 287 289 289 291 291 291
189 189 190 190 189 188 189 190 190 191 192 193 194 195 197 205 214 225 232 243 258 256 260 279 293 304 300 285 280 281 285 285 288 290 292 292 292 291 288 286 286 288 290 289 290 291 292 294 294 294 293 293
190 191 192 190 189 190 190 189 191 193 194 196 197 198 202 205 212 225 236 244 250 252 260 269 283 300 307 304 297 293 294 294 295 295 292 289 287 288 288 289 290 291 292 293 293 293 293 294 295 296 295 294
194 193 194 192 191 193 194 193 193 193 195 198 200 201 205 210 213 225 240 247 253 259 263 272 284 287 294 303 305 301 299 298 297 294 290 287 285 287 288 289 290 290 290 291 292 292 293 295 296 298 300 299
196 195 195 195 193 194 197 198 196 195 197 201 204 204 207 212 215 228 246 251 252 255 260 271 274 273 283 294 299 303 303 300 298 294 291 289 287 286 286 286 287 289 290 290 292 293 294 296 297 298 297 296
197 196 196 196 196 196 196 198 198 198 201 204 206 205 207 212 216 228 243 244 241 243 253 258 255 270 284 284 287 295 298 298 297 293 291 289 287 285 283 283 285 286 289 290 291 293 294 296 295 292 290 291
196 195 195 195 196 197 196 197 198 198 201 205 207 207 208 211 214 223 232 233 232 236 245 247 255 274 275 273 278 282 285 288 289 287 286 284 284 283 283 284 285 287 288 290 291 292 293 294 290 288 287 289
194 193 194 195 196 197 196 196 196 197 199 203 207 211 211 211 213 223 231 232 233 238 247 252 257 260 262 272 278 279 282 282 280 280 280 280 280 281 283 285 287 289 290 291 291 291 292 290 287 287 286 286
191 191 193 195 196 196 196 195 195 196 198 200 205 210 212 212 214 225 234 233 233 240 243 242 245 252 264 276 280 282 283 278 274 274 274 275 277 280 283 285 288 290 291 293 293 293 294 291 288 287 285 283
191 192 194 196 196 197 196 196 196 196 197 198 201 205 208 211 214 222 228 228 228 231 230 230 240 251 265 276 281 281 276 269 267 268 269 272 275 278 280 283 287 290 292 294 293 292 289 289 291 289 286 284
193 194 197 198 197 196 196 197 199 200 198 199 201 204 206 208 211 214 218 220 219 221 222 226 237 250 268 278 279 272 263 261 262 263 267 270 274 277 280 283 285 290 294 297 300 297 290 286 290 289 284 280
197 197 197 199 199 199 199 198 200 202 201 200 200 202 204 206 207 207 210 213 214 217 221 228 240 259 273 274 267 259 256 257 258 261 266 270 275 279 283 288 290 294 299 303 307 307 304 300 299 293 275 264
199 199 197 199 201 202 204 200 197 198 198 196 196 196 198 201 202 202 205 210 214 217 222 232 247 260 263 257 251 250 251 252 255 260 265 271 278 283 288 293 298 302 304 306 310 311 311 309 306 295 272 260
200 201 200 200 199 198 199 197 193 194 193 191 192 193 193 195 196 199 202 206 212 218 225 235 242 245 243 240 241 243 245 248 251 254 260 270 277 286 292 297 303 307 308 310 313 314 313 309 299 288 293 299
204 207 208 207 204 200 197 193 189 190 190 189 189 190 189 189 191 195 200 204 210 217 224 229 229 229 229 231 235 238 241 244 248 254 259 269 277 286 295 302 308 309 310 313 314 314 313 304 293 293 300 304
204 206 206 205 203 201 199 196 190 187 188 187 186 186 186 187 188 191 197 200 205 209 211 213 214 217 220 225 231 235 242 249 255 262 268 275 283 290 296 301 305 305 308 311 312 311 310 305 299 298 298 296